www.pogodaiklimat.ru

Погода и климат >> Архив погоды >> Россия >> Якутия >> Усть-Нера


ПОГОДА в Усть-Нере

  • Прогноз погоды в Усть-Нере
  • Монитор погоды в Усть-Нере
  • Климат города

АРХИВ ПОГОДЫ в Усть-Нере

Время (UTC), дата Ветер
(напр.,м/с)
 
Видим.   Явления Облачность Т
(С)
Тd
(С)
f
(%)
Тe
(С)
Тes
(С)
Комфортность P
(гПа)
Po
(гПа)
Тmin
(С)
Tmax
(С)
R
(мм)
R24
(мм)
S
(см)
15 12.09 З 3 10 км ясно -1.6 -3.8 85 -7 -7 1023.0 958.6
18 12.09 ЮЗ 1 10 км ясно +2.0 -3.9 65 +1 +1 1023.6 959.1
21 12.09 ЮЗ 2 50 км ясно -2.0 -4.3 84 -6 -6 1024.1 959.6 -3.1
00 13.09 ЮЗ 2 50 км ясно +3.5 -3.2 62 +1 +4 1022.6 959.4
03 13.09 З 2 50 км ясно +11.4 -3.4 35 +11 +16 1019.2 957.9
06 13.09 ЮВ 2 50 км ясно +14.1 -2.9 31 +14 +16 1017.4 956.7
09 13.09 С 1 50 км ясно +7.3 -3.6 46 +7 +7 1019.2 957.1 +14.3
12 13.09 штиль 0 10 км ясно -1.9 -4.5 82 -3 -3 1021.9 957.5
15 13.09 штиль 0 10 км ясно -5.0 -6.0 93 -6 -6 1023.1 958.0
18 13.09 штиль 0 10 км ясно -6.5 -7.3 94 -7 -7 1023.9 958.4
21 13.09 штиль 0 50 км 3/0
[Ci fib]
-5.7 -6.8 92 -7 -7 1024.0 958.5 -8.2
00 14.09 штиль 0 50 км 3/0
[Ci fib]
+2.3 -4.4 61 +2 +6 1021.0 957.6
03 14.09 З 2 50 км 6/0
[Ci fib]
+9.8 -4.6 36 +9 +13 1016.7 955.2
06 14.09 З 2 50 км 8/0
[Ci fib]
+12.5 -4.3 31 +12 +14 1014.0 953.3
09 14.09 штиль 0 50 км 9/0
[Ac trans Ci fib]
+4.2 -2.3 63 +4 +4 1015.4 952.7 +13.1
12 14.09 З 2 10 км 9/0
[Ac trans Ci fib]
-2.1 -4.7 82 -6 -6 1016.8 952.7
15 14.09 штиль 0 10 км 6/0
[Ac trans]
-4.5 -5.5 93 -6 -6 1017.4 952.7
18 14.09 штиль 0 10 км 10/0
[Ci fib]
-6.2 -7.0 94 -7 -7 1017.5 952.4
21 14.09 штиль 0 50 км 8/0
[Ac trans Ci fib]
-6.0 -6.8 94 -7 -7 1017.1 952.1 -6.8
00 15.09 СВ 1 50 км 10/0
[]
+1.9 -3.1 69 +1 +2 1014.6 951.5
03 15.09 СВ 1 50 км 10/0
[Ci fib]
+8.9 -4.0 40 +9 +13 1010.2 949.2
06 15.09 В 1 50 км 4/0
[Ci fib]
+13.1 -5.8 26 +14 +16 1008.1 947.8
09 15.09 штиль 0 50 км 6/0
[Ci fib]
+5.9 -5.0 45 +6 +6 1009.8 947.9 +13.3
12 15.09 С 2 10 км ясно -1.2 -5.1 75 -5 -5 1012.1 948.5
15 15.09 СВ 2 10 км ясно -4.8 -6.5 88 -9 -9 1013.5 949.0
18 15.09 штиль 0 10 км ясно -6.6 -7.8 91 -8 -8 1014.8 949.7
21 15.09 штиль 0 50 км ясно -7.6 -8.6 93 -8 -8 1015.9 950.5 -9.1
00 16.09 штиль 0 50 км ясно +2.1 -6.7 52 +2 +6 1013.2 950.3
03 16.09 штиль 0 50 км ясно +8.8 -5.6 36 +9 +15 1009.9 948.6
06 16.09 штиль 0 50 км ясно +11.8 -2.3 37 +12 +14 1007.4 946.9
09 16.09 штиль 0 50 км 3/3 1500 м
[Sc]
+2.3 -4.4 61 +2 +2 1009.1 946.5 +12.2
12 16.09 СВ 2 10 км 6/6 1500 м
[Sc]
+1.8 -3.3 69 -1 -1 1009.2 946.5
15 16.09 СВ 6 10 км 8/8 1500 м
[Sc]
+2.5 -3.8 63 -3 -3 1007.5 945.0
18 16.09 СВ 6 10 км 8/8 1500 м
[Sc]
+3.7 -3.7 58 -1 -1 1005.4 942.8
21 16.09 В 6 50 км 10/10 1500 м
[Sc]
+3.2 -4.7 56 -2 -2 1003.4 941.3 -1.5
00 17.09 СВ 3 10 км слабый дождь 10/10 1260 м
[Frnb Ns]
+1.9 +0.8 92 -3 -3 1002.6 940.3
03 17.09 СВ 2 20 км {снег, дождь} 9/9 1200 м
[Cb cap]
+3.0 +2.0 93 -0 0 1002.0 940.1
06 17.09 В 4 50 км {снег, дождь} 8/8 1410 м
[Cb cap]
+5.1 +2.4 83 +1 +1 1000.4 939.0
09 17.09 СВ 3 50 км {ливн. осадки} 9/8 1470 м
[Cb cap Ac trans]
+5.2 +2.2 81 +2 +2 1000.7 939.3 +6.0 3
12 17.09 З 3 10 км в посл. час ливневой дождь 10/10 1410 м
[Cb cap]
+3.8 +3.3 97 -0 -0 1003.1 941.2
15 17.09 ЮЗ 4 10 км слабый ливневой дождь 10/10 1350 м
[Cb cap]
+3.3 +2.8 97 -2 -2 1004.7 942.6
18 17.09 З 5 10 км {ливн. осадки} 10/10 1410 м
[Cb cap]
+3.5 +1.4 86 -2 -2 1006.2 944.1
21 17.09 З 4
{12}
20 км слабый ливневой дождь 10/10 1320 м
[Cb cap]
+2.9 +2.1 94 -2 -2 1008.7 946.3 +2.6 7
00 18.09 З 6 20 км {ливн. осадки} 10/4 1000 м
[Cb cap Ac und]
+5.1 +1.6 78 0 0 1009.8 947.8
03 18.09 ЮЗ 1 20 км в посл. час ливневой дождь 10/8 1320 м
[Cb cap Ac und]
+4.8 +2.8 87 +3 +4 1011.0 948.8
06 18.09 З 3
{12}
20 км {ливн. осадки} 10/10 1410 м
[Cb cap]
+6.9 +0.6 64 +4 +4 1011.0 949.3
09 18.09 З 2
{13}
20 км {ливн. осадки} 10/8 1470 м
[Cb cap Ci sp]
+3.2 +1.4 88 0 0 1013.6 951.0 +7.6 0.5
12 18.09 З 4 10 км {ливн. осадки} 10/8 1500 м
[Cb cap Ac und]
+2.8 +1.0 88 -2 -2 1014.7 951.9
15 18.09 З 4 10 км 10/8 1500 м
[Cb cap Ac und]
+2.3 +1.0 91 -3 -3 1015.6 952.6
18 18.09 З 2 10 км 10/8 1500 м
[Cb cap Ac und]
+1.4 +0.3 92 -2 -2 1016.6 953.4
21 18.09 ЮЗ 4 50 км 9/5 1500 м
[Sc Ac trans]
+1.4 -0.8 85 -4 -4 1017.3 954.0 +1.3
00 19.09 З 2 50 км 3/3 1500 м
[Sc]
+4.7 -1.3 65 +2 +4 1016.6 954.1 +0.7
03 19.09 ЮВ 1 50 км 5/5 1500 м
[Cu med, cong]
+6.8 -2.1 53 +6 +9 1015.1 953.1
06 19.09 В 2 50 км 8/8 1500 м
[Sc]
+7.2 -3.0 48 +6 +6 1013.9 952.0
09 19.09 В 2 50 км 6/0
[Ci sp]
+4.1 -3.4 58 +2 +2 1014.6 952.0 +7.9
12 19.09 СВ 3 10 км 4/0
[Ci sp]
+2.8 -3.4 64 -1 -1 1014.6 951.8

 

Местоположение метеостанции Усть-Нера (Якутия, Россия): широта 64.53 долгота 143.10 высота над уровнем моря 519 м.

В архиве по умолчанию представлена погода в Усть-Нере за последнюю неделю. Архивные данные за месяц целиком и за предыдущие месяцы, начиная с января 2011 года, Вы можете получить, выбрав интересующий диапазон дат из раскрывающегося списка и нажав кнопку "Ввод!".

Внимание! Время в таблицах - всемирное. Для получения местного времени необходимо прибавить поправку, которая в Усть-Нере равна 10 ч.

Смотрите также архив погоды в соседних городах и на ближайших метеорологических станциях:

Погода в Юртах (Якутия, Россия) (82 км)
Погода в Оймяконе (Якутия, Россия) (142 км)
Погода в Делянкире (Якутия, Россия) (144 км)
Погода в Агаякане (Якутия, Россия) (150 км)
Погода в Усть-Моме (Якутия, Россия) (214 км)
Погода в Восточной (Якутия, Россия) (224 км)
Погода в Сусумане (Магаданская область, Россия) (314 км)
Погода в Иэме (Якутия, Россия) (355 км)
Погода в Томпо (Якутия, Россия) (359 км)
Погода в Теплом Ключе (Якутия, Россия) (367 км)

Пояснения к столбцам:

Ветер - указаны скорость ветра в м/с - средняя за 10 мин, порывы в срок и между сроками (в фигурных скобках) и направление, откуда дует ветер: С - северный, СВ - северо-восточный, В - восточный, ЮВ - юго-восточный, Ю - южный, ЮЗ - юго-западный, З - западный, СЗ - северо-западный.
Видимость - горизонтальная дальность видимости в метрах или километрах. При видимости от 1 до 10 км при отсутствии осадков обычно наблюдается дымка, при ухудшении видимости до 1 км и менее - туман. В сухую погоду видимость может ухудшаться дымом, пылью или мглою.
Явления - указаны атмосферные явления, наблюдавшиеся в срок или в последний час перед сроком; фигурными скобками обозначены явления, наблюдавшиеся между сроками (за 1-3 часа до срока); квадратными скобками обозначены град или гололедные отложения с указанием их диаметра в мм.
Облачность - указаны через наклонную черту общая и нижняя облачность в баллах и высота нижней границы облаков в метрах; квадратными скобками обозначены формы облаков: Ci - перистые, Cs - перисто-слоистые, Cc - перисто-кучевые, Ac - высококучевые, As - высокослоистые, Sc - слоисто-кучевые, Ns - слоисто-дождевые, Cu - кучевые, Cb - кучево-дождевые. Подробнее классификацию облаков см. в Атласе облаков (PDF).
T - Температура воздуха - температура, измеренная на высоте 2 м над землей.
Td - Температура точки росы - температура, при понижении до которой содержащийся в воздухе водяной пар достигнет насыщения.
f - Относительная влажность воздуха - влажноcть воздуха, измеренная на высоте 2 м над землей.
Te - Эффективная температура - температура, которую ощущает одетый по сезону человек в тени. Характеристика душности погоды. При расчете учитывается влияние влажности воздуха и скорости ветра на теплоощущения человека.
Tes - Эффективная температура на солнце - температура, которую ощущает человек, с поправкой на солнечный нагрев. Характеристика знойности погоды. Зависит от высоты солнца над горизонтом, облачности и скорости ветра. Ночью, в пасмурную погоду, а также при ветре 12 м/с и более поправка равна нулю.
P - Атмосферное давление - приведенное к уровню моря атмосферное давление.
Po - Атмосферное давление - измеренное на уровне метеостанции атмосферное давление.
Tmin - Минимальная температура - минимум температуры воздуха на высоте 2 м над землей.
Tmax - Максимальная температура - максимум температуры воздуха на высоте 2 м над землей.
R - Количество осадков - Количество выпавших осадков за период времени, мм. При наведении курсора мыши на число - период времени, за который выпало указанное количество осадков.
R24 - Количество осадков - Количество выпавших осадков за 24 часа, мм.
S - Снежный покров - Высота снежного покрова, см. При наведении курсора мыши на число - состояние снежного покрова и степень покрытия местности в баллах.